This demonstration page uses our WeatherBlox Daily Observations layout. Learn more.

39.92423, -83.80882

Hourly Observations for September 15, 2019

Temp ( °F °C ) Dew Point ( °F °C ) Humidity (%) Winds ( mph kmh ) Pressure ( in mb ) Visibility ( mi km ) Precip ( " mm )
12:56 am 00:56 Clear 59 15 56 13.3 90 90 Calm 30.21 1023 10 16.09344 0 0
1:56 am 01:56 Clear 56 13.3 55 12.8 97 97 ESE 3 6 30.21 1023 10 16.09344 0 0
2:56 am 02:56 Clear 56 13.3 55 12.8 97 97 Calm 30.21 1023 10 16.09344 0 0
3:56 am 03:56 Clear 55 12.8 55 12.8 100 100 Calm 30.18 1022 10 16.09344 0 0
4:56 am 04:56 Clear 55 12.8 54 12.2 96 96 SE 3 6 30.18 1022 10 16.09344 0 0
5:56 am 05:56 Clear 55 12.8 54 12.2 96 96 SSE 3 6 30.18 1022 10 16.09344 0 0
6:56 am 06:56 Clear 54 12.2 53 11.7 97 97 Calm 30.18 1022 10 16.09344 0 0
7:56 am 07:56 Sunny 60 15.6 56 13.3 86 86 S 5 7 30.21 1023 10 16.09344 0 0
8:56 am 08:56 Sunny 66 18.9 57 13.9 73 73 S 6 9 30.21 1023 10 16.09344 0 0
9:56 am 09:56 Sunny 71 21.7 58 14.4 63 63 SW 7 11 30.21 1023 10 16.09344 0 0
10:56 am 10:56 Sunny 76 24.4 59 15 56 56 S 6 9 30.21 1023 10 16.09344 0 0
11:56 am 11:56 Sunny 77 25 58 14.4 52 52 SSW 8 13 30.18 1022 10 16.09344 0 0
12:56 pm 12:56 Cloudy 78 25.6 58 14.4 50 50 VRB 3 6 30.21 1023 10 16.09344 0 0
1:56 pm 13:56 Mostly Sunny 82 27.8 58 14.4 44 44 W 9 15 30.18 1022 10 16.09344 0 0
2:56 pm 14:56 Mostly Sunny 80 26.7 57 13.9 45 45 VRB 5 7 30.15 1021 10 16.09344 0 0
3:56 pm 15:56 Sunny 82 27.8 56 13.3 41 41 SW 6 9 30.12 1020 10 16.09344 0 0
4:56 pm 16:56 Sunny 82 27.8 54 12.2 38 38 S 5 7 30.09 1019 10 16.09344 0 0
5:56 pm 17:56 Sunny 81 27.2 57 13.9 44 44 S 6 9 30.09 1019 10 16.09344 0 0
6:56 pm 18:56 Mostly Sunny 80 26.7 57 13.9 45 45 Calm 30.09 1019 10 16.09344 0 0
7:56 pm 19:56 Clear 76 24.4 58 14.4 54 54 SSE 3 6 30.06 1018 10 16.09344 0 0
10:56 pm 22:56 Mostly Cloudy 74 23.3 60 15.6 62 62 S 8 13 30.06 1018 10 16.09344 0 0
11:56 pm 23:56 Mostly Clear 73 22.8 60 15.6 64 64 S 6 9 30.06 1018 10 16.09344 0 0

Powered by AerisWeather